ICEYE-X31

导读 | 星芒AI

ICEYE-X31 是 ICEYE 公司研发的一颗合成孔径雷达(SAR)成像卫星,具备高分辨率和全天候、全天时成像能力。该卫星采用小型卫星平台,支持快速部署和灵活任务调度,广泛应用于灾害监测、环境评估和安全监控等领域。作为 ICEYE 卫星星座的一部分,ICEYE-X31 提升了全球雷达遥感数据的获取频率和覆盖能力,为政府、企业和科研机构提供关键的地球观测服务。

基本信息
目录编号:
58288
目录名称:
ICEYE-X31
国际标识:
2023-174AJ
轨道中心:
EARTH
卫星名称:
ICEYE-X31
卫星全名:
--
卫星状态:
在轨 (已飞行765 天)
发射日期:
2023-11-11 UTC
国别 :
(FI)
星等 :
--
轨道信息
数据来源 国际轨道数据
星历时间: 2025-12-15T07:15:17+0800
19小时前
查看轨道信息
半长轴: 6860.693km
偏心率: 0.0001897
轨道倾角: 97.400°
近地点辐角 252.625°
升交点赤经 60.462°
平近点角 107.478°
近地点: 481.256km
远地点: 483.86km
周期: 94.257分钟
每日圈数: 15.277448
详细信息
使用方式:
暂无
2D轨道图
3D轨道图
轨道高度分析图
轨道倾角分析图
轨道综合分析图
查看轨道综合分析图